This demonstration page uses our WeatherBlox Daily Observations layout. Learn more.

Left ArrowRight Arrow

Hourly Observations for April 18, 2022

Temp ( °F °C ) Dew Point ( °F °C ) Humidity (%) Winds ( mph kmh ) Pressure ( in mb ) Visibility ( mi km ) Precip ( " mm )
12:56 am 00:56 Clear 32 -0.2 28 -2.3 86 86 WNW 6 9 30.32 1027 10 16 0.00 0.00
1:56 am 01:56 Clear 31 -0.6 28 -2.3 88 88 W 6 9 30.33 1027 10 16 0.00 0.00
2:56 am 02:56 Clear 31 -0.4 28 -2 89 89 WNW 8 13 30.34 1027 10 16 0.00 0.00
3:56 am 03:56 Cloudy 36 2.3 22 -5.3 58 58 NNW 15 24 30.34 1027 10 16 0.00 0.00
4:56 am 04:56 Mostly Cloudy 35 1.7 19 -7.1 52 52 NNW 13 20 30.35 1028 10 16 0.00 0.00
5:56 am 05:56 Mostly Clear 33 0.6 19 -7.4 55 55 NNW 17 28 30.37 1028 10 16 0.00 0.00
6:56 am 06:56 Sunny 31 -0.6 18 -7.9 58 58 NW 15 24 30.40 1030 10 16 0.00 0.00
7:56 am 07:56 Sunny 32 0 19 -7.5 57 57 WNW 20 31 30.42 1030 9 14 0.00 0.00
8:56 am 08:56 Sunny 34 1.1 16 -8.7 48 48 NW 25 41 30.43 1031 9 14 0.00 0.00
9:56 am 09:56 Sunny 36 2.4 16 -8.9 43 43 NW 22 35 30.46 1032 8 13 0.00 0.00
10:09 am 10:09 Sunny 37 3 16 -8.7 42 42 NW 20 31 30.46 1032 10 16 0.00 0.00
10:56 am 10:56 Sunny 40 4.7 15 -9.3 36 36 NNW 17 28 30.46 1032 10 16 0.00 0.00
11:56 am 11:56 Sunny 44 6.8 15 -9.6 30 30 NW 23 37 30.45 1031 9 14 0.00 0.00
12:14 pm 12:14 undefined 46 8 16 -9 29 29 WNW 14 22 30.45 1031 10 16 0.00 0.00
12:56 pm 12:56 Hazy 49 9.2 13 -10.3 24 24 WNW 22 35 30.44 1031 6 10 0.00 0.00
1:56 pm 13:56 Sunny 52 10.9 13 -10.6 21 21 NW 26 43 30.40 1029 9 14 0.00 0.00
2:56 pm 14:56 undefined 53 11.6 11 -11.9 18 18 NNW 22 35 30.39 1029 7 11 0.00 0.00
3:48 pm 15:48 Sunny 54 12 10 -12 18 18 WNW 25 41 30.37 1029 8 13 0.00 0.00
3:56 pm 15:56 Sunny 54 12 11 -11.6 18 18 NNW 17 28 30.37 1029 9 14 0.00 0.00
4:03 pm 16:03 Sunny 54 12 10 -12 18 18 NNW 21 33 30.37 1029 9 14 0.00 0.00
4:56 pm 16:56 Sunny 53 11.7 11 -11.9 18 18 NW 18 30 30.36 1028 9 14 0.00 0.00
5:56 pm 17:56 Sunny 53 11.5 9 -12.7 17 17 NW 17 28 30.35 1028 10 16 0.00 0.00
6:56 pm 18:56 Sunny 51 10.8 9 -12.6 18 18 NNW 15 24 30.35 1028 10 16 0.00 0.00
7:56 pm 19:56 Sunny 49 9.4 11 -11.9 21 21 N 12 19 30.35 1028 10 16 0.00 0.00
8:56 pm 20:56 Clear 45 7.4 11 -11.4 25 25 N 7 11 30.38 1029 10 16 0.00 0.00
9:56 pm 21:56 Clear 43 6.1 11 -11.5 27 27 N 6 9 30.40 1029 10 16 0.00 0.00
10:56 pm 22:56 Clear 41 4.9 11 -11.7 29 29 NNE 5 7 30.39 1029 10 16 0.00 0.00
11:56 pm 23:56 Clear 38 3.3 13 -10.7 35 35 ENE 6 9 30.39 1029 10 16 0.00 0.00

Powered by AerisWeather